Time,TemperatureF,DewpointF,PressureIn,WindDirection,WindDirectionDegrees,WindSpeedMPH,WindSpeedGustMPH,Humidity,HourlyPrecipIn,Conditions,Clouds,dailyrainin,SolarRadiationWatts/m^2,SoftwareType,DateUTC
2013-05-12 00:03:00,-999.0,-99.9,-100.00,West,275,4.0,12.0,96,0.00,,,0.24,0.000000,,2013-05-12 04:03:00,
2013-05-12 00:33:00,46.0,45.0,-100.00,WNW,286,5.0,11.0,96,0.00,,,0.21,0.000000,,2013-05-12 04:33:00,
2013-05-12 00:43:00,46.0,45.0,-100.00,WNW,286,5.0,11.0,96,0.00,,,0.21,0.000000,,2013-05-12 04:43:00,
2013-05-12 00:52:00,46.0,45.0,-100.00,WNW,286,5.0,11.0,96,0.00,,,0.21,0.000000,,2013-05-12 04:52:00,
2013-05-12 01:02:00,46.0,45.0,-100.00,WNW,286,5.0,11.0,96,0.00,,,0.21,0.000000,,2013-05-12 05:02:00,
2013-05-12 01:32:00,46.0,45.0,-100.00,WNW,287,6.0,15.0,98,0.00,,,0.21,0.000000,,2013-05-12 05:32:00,
2013-05-12 01:42:00,46.0,45.0,-100.00,WNW,287,6.0,15.0,98,0.00,,,0.21,0.000000,,2013-05-12 05:42:00,
2013-05-12 01:52:00,46.0,45.0,-100.00,WNW,287,6.0,15.0,98,0.00,,,0.21,0.000000,,2013-05-12 05:52:00,
2013-05-12 02:02:00,46.0,45.0,-100.00,WNW,287,6.0,15.0,98,0.00,,,0.21,0.000000,,2013-05-12 06:02:00,
2013-05-12 02:32:00,46.0,44.0,-100.00,West,279,7.0,20.0,94,0.00,,,0.19,0.000000,,2013-05-12 06:32:00,
2013-05-12 02:42:00,46.0,44.0,-100.00,West,279,7.0,20.0,94,0.00,,,0.19,0.000000,,2013-05-12 06:42:00,
2013-05-12 02:52:00,46.0,44.0,-100.00,West,279,7.0,20.0,94,0.00,,,0.19,0.000000,,2013-05-12 06:52:00,
2013-05-12 03:02:00,46.0,44.0,-100.00,West,279,7.0,20.0,94,0.00,,,0.19,0.000000,,2013-05-12 07:02:00,
2013-05-12 03:32:00,46.0,45.0,-100.00,West,279,9.0,18.0,95,0.01,,,0.20,0.000000,,2013-05-12 07:32:00,
2013-05-12 03:42:00,46.0,45.0,-100.00,West,279,9.0,18.0,95,0.01,,,0.20,0.000000,,2013-05-12 07:42:00,
2013-05-12 03:52:00,46.0,45.0,-100.00,West,279,9.0,18.0,95,0.01,,,0.20,0.000000,,2013-05-12 07:52:00,
2013-05-12 04:02:00,46.0,45.0,-100.00,West,279,9.0,18.0,95,0.01,,,0.20,0.000000,,2013-05-12 08:02:00,
2013-05-12 04:32:00,41.0,40.0,-100.00,NNW,328,8.0,20.0,98,0.01,,,0.21,0.000000,,2013-05-12 08:32:00,
2013-05-12 04:42:00,41.0,40.0,-100.00,NNW,328,8.0,20.0,98,0.01,,,0.21,0.000000,,2013-05-12 08:42:00,
2013-05-12 04:53:00,41.0,40.0,-100.00,NNW,328,8.0,20.0,98,0.01,,,0.21,0.000000,,2013-05-12 08:53:00,
2013-05-12 05:01:00,41.0,40.0,-100.00,NNW,328,8.0,20.0,98,0.01,,,0.21,0.000000,,2013-05-12 09:01:00,
2013-05-12 05:33:00,38.0,36.0,-100.00,NNW,329,7.0,20.0,92,0.00,,,0.19,0.000000,,2013-05-12 09:33:00,
2013-05-12 05:43:00,38.0,36.0,-100.00,NNW,329,7.0,20.0,92,0.00,,,0.19,0.000000,,2013-05-12 09:43:00,
2013-05-12 05:53:00,38.0,36.0,-100.00,NNW,329,7.0,20.0,92,0.00,,,0.19,0.000000,,2013-05-12 09:53:00,
2013-05-12 06:03:00,38.0,36.0,-100.00,NNW,329,7.0,20.0,92,0.00,,,0.19,0.000000,,2013-05-12 10:03:00,
2013-05-12 06:33:00,35.0,32.0,-100.00,NW,317,5.0,13.0,88,0.00,,,0.19,1.000000,,2013-05-12 10:33:00,
2013-05-12 06:42:00,35.0,32.0,-100.00,NW,317,5.0,13.0,88,0.00,,,0.19,1.000000,,2013-05-12 10:42:00,
2013-05-12 06:52:00,35.0,32.0,-100.00,NW,317,5.0,13.0,88,0.00,,,0.19,1.000000,,2013-05-12 10:52:00,
2013-05-12 07:02:00,35.0,32.0,-100.00,NW,317,5.0,13.0,88,0.00,,,0.19,1.000000,,2013-05-12 11:02:00,
2013-05-12 07:32:00,34.0,29.0,-100.00,NW,318,5.0,17.0,82,0.00,,,0.19,58.000000,,2013-05-12 11:32:00,
2013-05-12 07:42:00,34.0,29.0,-100.00,NW,318,5.0,17.0,82,0.00,,,0.19,58.000000,,2013-05-12 11:42:00,
2013-05-12 07:52:00,34.0,29.0,-100.00,NW,318,5.0,17.0,82,0.00,,,0.19,58.000000,,2013-05-12 11:52:00,
2013-05-12 08:02:00,34.0,29.0,-100.00,NW,318,5.0,17.0,82,0.00,,,0.19,58.000000,,2013-05-12 12:02:00,
2013-05-12 09:32:00,38.0,28.0,-100.00,WNW,289,6.0,16.0,68,-99.99,,,0.02,327.000000,,2013-05-12 13:32:00,
2013-05-12 09:42:00,38.0,28.0,-100.00,WNW,289,6.0,16.0,68,-99.99,,,0.02,327.000000,,2013-05-12 13:42:00,
2013-05-12 09:52:00,38.0,28.0,-100.00,WNW,289,6.0,16.0,68,-99.99,,,0.02,327.000000,,2013-05-12 13:52:00,
2013-05-12 10:01:00,38.0,28.0,-100.00,WNW,289,6.0,16.0,68,-99.99,,,0.02,327.000000,,2013-05-12 14:01:00,
2013-05-12 10:32:00,40.0,30.0,-100.00,West,276,7.0,17.0,68,0.00,,,0.02,270.000000,,2013-05-12 14:32:00,
2013-05-12 10:42:00,40.0,30.0,-100.00,West,276,7.0,17.0,68,0.00,,,0.02,270.000000,,2013-05-12 14:42:00,
2013-05-12 10:52:00,40.0,30.0,-100.00,West,276,7.0,17.0,68,0.00,,,0.02,270.000000,,2013-05-12 14:52:00,
2013-05-12 11:01:00,40.0,30.0,-100.00,West,276,7.0,17.0,68,0.00,,,0.02,270.000000,,2013-05-12 15:01:00,
2013-05-12 11:34:00,42.0,25.0,-100.00,West,276,9.0,22.0,51,0.00,,,-99.99,470.000000,,2013-05-12 15:34:00,
2013-05-12 11:42:00,42.0,25.0,-100.00,West,276,9.0,22.0,51,0.00,,,-99.99,470.000000,,2013-05-12 15:42:00,
2013-05-12 11:53:00,42.0,25.0,-100.00,West,276,9.0,22.0,51,0.00,,,-99.99,470.000000,,2013-05-12 15:53:00,
2013-05-12 12:02:00,42.0,25.0,-100.00,West,276,9.0,22.0,51,0.00,,,-99.99,470.000000,,2013-05-12 16:02:00,
2013-05-12 12:33:00,44.0,28.0,-100.00,WNW,293,9.0,19.0,52,0.00,,,0.02,401.000000,,2013-05-12 16:33:00,
2013-05-12 12:42:00,44.0,28.0,-100.00,WNW,293,9.0,19.0,52,0.00,,,0.02,401.000000,,2013-05-12 16:42:00,
2013-05-12 12:53:00,44.0,28.0,-100.00,WNW,293,9.0,19.0,52,0.00,,,0.02,401.000000,,2013-05-12 16:53:00,
2013-05-12 13:02:00,44.0,28.0,-100.00,WNW,293,9.0,19.0,52,0.00,,,0.02,401.000000,,2013-05-12 17:02:00,
2013-05-12 13:32:00,45.0,25.0,-100.00,West,259,10.0,19.0,45,0.00,,,-99.99,464.000000,,2013-05-12 17:32:00,
2013-05-12 13:42:00,45.0,25.0,-100.00,West,259,10.0,19.0,45,0.00,,,-99.99,464.000000,,2013-05-12 17:42:00,
2013-05-12 13:53:00,45.0,25.0,-100.00,West,259,10.0,19.0,45,0.00,,,-99.99,464.000000,,2013-05-12 17:53:00,
2013-05-12 14:01:00,45.0,25.0,-100.00,West,259,10.0,19.0,45,0.00,,,-99.99,464.000000,,2013-05-12 18:01:00,
2013-05-12 14:32:00,42.0,20.0,-100.00,West,279,11.0,26.0,41,0.00,,,0.02,461.000000,,2013-05-12 18:32:00,
2013-05-12 14:42:00,42.0,20.0,-100.00,West,279,11.0,26.0,41,0.00,,,0.02,461.000000,,2013-05-12 18:42:00,
2013-05-12 14:52:00,42.0,20.0,-100.00,West,279,11.0,26.0,41,0.00,,,0.02,461.000000,,2013-05-12 18:52:00,
2013-05-12 15:01:00,42.0,20.0,-100.00,West,279,11.0,26.0,41,0.00,,,0.02,461.000000,,2013-05-12 19:01:00,
2013-05-12 15:32:00,45.0,35.0,-100.00,WNW,282,11.0,22.0,68,0.00,,,0.02,548.000000,,2013-05-12 19:32:00,
2013-05-12 15:42:00,45.0,35.0,-100.00,WNW,282,11.0,22.0,68,0.00,,,0.02,548.000000,,2013-05-12 19:42:00,
2013-05-12 15:52:00,45.0,35.0,-100.00,WNW,282,11.0,22.0,68,0.00,,,0.02,548.000000,,2013-05-12 19:52:00,
2013-05-12 16:02:00,45.0,35.0,-100.00,WNW,282,11.0,22.0,68,0.00,,,0.02,548.000000,,2013-05-12 20:02:00,
2013-05-12 16:32:00,45.0,22.0,-100.00,West,277,12.0,25.0,39,0.00,,,0.02,620.000000,,2013-05-12 20:32:00,
2013-05-12 16:42:00,45.0,22.0,-100.00,West,277,12.0,25.0,39,0.00,,,0.02,620.000000,,2013-05-12 20:42:00,
2013-05-12 16:52:00,45.0,22.0,-100.00,West,277,12.0,25.0,39,0.00,,,0.02,620.000000,,2013-05-12 20:52:00,
2013-05-12 17:01:00,45.0,22.0,-100.00,West,277,12.0,25.0,39,0.00,,,0.02,620.000000,,2013-05-12 21:01:00,
2013-05-12 17:33:00,43.0,28.0,-100.00,NW,305,7.0,18.0,56,0.00,,,0.02,254.000000,,2013-05-12 21:33:00,
2013-05-12 17:42:00,43.0,28.0,-100.00,NW,305,7.0,18.0,56,0.00,,,0.02,254.000000,,2013-05-12 21:42:00,
2013-05-12 17:53:00,43.0,28.0,-100.00,NW,305,7.0,18.0,56,0.00,,,0.02,254.000000,,2013-05-12 21:53:00,
2013-05-12 18:02:00,43.0,28.0,-100.00,NW,305,7.0,18.0,56,0.00,,,0.02,254.000000,,2013-05-12 22:02:00,
2013-05-12 18:33:00,44.0,28.0,-100.00,WNW,298,9.0,19.0,53,0.00,,,0.02,219.000000,,2013-05-12 22:33:00,
2013-05-12 18:42:00,44.0,28.0,-100.00,WNW,298,9.0,19.0,53,0.00,,,0.02,219.000000,,2013-05-12 22:42:00,
2013-05-12 18:52:00,44.0,28.0,-100.00,WNW,298,9.0,19.0,53,0.00,,,0.02,219.000000,,2013-05-12 22:52:00,
2013-05-12 19:02:00,44.0,28.0,-100.00,WNW,298,9.0,19.0,53,0.00,,,0.02,219.000000,,2013-05-12 23:02:00,
2013-05-12 19:32:00,43.0,22.0,-100.00,NNW,332,7.0,20.0,42,0.00,,,0.02,134.000000,,2013-05-12 23:32:00,
2013-05-12 19:42:00,43.0,22.0,-100.00,NNW,332,7.0,20.0,42,0.00,,,0.02,134.000000,,2013-05-12 23:42:00,
2013-05-12 19:52:00,43.0,22.0,-100.00,NNW,332,7.0,20.0,42,0.00,,,0.02,134.000000,,2013-05-12 23:52:00,
2013-05-12 20:01:00,43.0,22.0,-100.00,NNW,332,7.0,20.0,42,0.00,,,0.02,134.000000,,2013-05-13 00:01:00,
2013-05-12 20:32:00,39.0,29.0,-100.00,NNW,333,5.0,16.0,66,0.00,,,0.02,27.000000,,2013-05-13 00:32:00,
2013-05-12 20:42:00,39.0,29.0,-100.00,NNW,333,5.0,16.0,66,0.00,,,0.02,27.000000,,2013-05-13 00:42:00,
2013-05-12 20:52:00,39.0,29.0,-100.00,NNW,333,5.0,16.0,66,0.00,,,0.02,27.000000,,2013-05-13 00:52:00,
2013-05-12 21:01:00,39.0,29.0,-100.00,NNW,333,5.0,16.0,66,0.00,,,0.02,27.000000,,2013-05-13 01:01:00,
2013-05-12 21:32:00,36.0,28.0,-100.00,NW,307,4.0,13.0,72,0.00,,,0.02,3.000000,,2013-05-13 01:32:00,
2013-05-12 21:42:00,36.0,28.0,-100.00,NW,307,4.0,13.0,72,0.00,,,0.02,3.000000,,2013-05-13 01:42:00,
2013-05-12 21:52:00,36.0,28.0,-100.00,NW,307,4.0,13.0,72,0.00,,,0.02,3.000000,,2013-05-13 01:52:00,
2013-05-12 22:02:00,36.0,28.0,-100.00,NW,307,4.0,13.0,72,0.00,,,0.02,3.000000,,2013-05-13 02:02:00,
2013-05-12 22:32:00,36.0,27.0,-100.00,West,281,5.0,14.0,69,0.00,,,0.02,0.000000,,2013-05-13 02:32:00,
2013-05-12 22:42:00,36.0,27.0,-100.00,West,281,5.0,14.0,69,0.00,,,0.02,0.000000,,2013-05-13 02:42:00,
2013-05-12 22:52:00,36.0,27.0,-100.00,West,281,5.0,14.0,69,0.00,,,0.02,0.000000,,2013-05-13 02:52:00,
2013-05-12 23:02:00,36.0,27.0,-100.00,West,281,5.0,14.0,69,0.00,,,0.02,0.000000,,2013-05-13 03:02:00,
2013-05-12 23:33:00,36.0,26.0,-100.00,WNW,296,5.0,16.0,66,0.00,,,0.02,0.000000,,2013-05-13 03:33:00,
2013-05-12 23:42:00,36.0,26.0,-100.00,WNW,296,5.0,16.0,66,0.00,,,0.02,0.000000,,2013-05-13 03:42:00,
2013-05-12 23:53:00,36.0,26.0,-100.00,WNW,296,5.0,16.0,66,0.00,,,0.02,0.000000,,2013-05-13 03:53:00,